When you browse on this site, cookies collect data to enhance your experience and personalize the content and advertising you see.
Visit our Privacy Policy to learn more. By continuing to use the site, you agree to this use of cookies and data.
EN

Hourly Weather Tyldesley

Today, 4 August, Tuesday

Time Temperature Precipitation Wind Pressure Humidity
00:00 +12°C° 0 mm 1 mps 757 mmHg 82%
01:00 +12°C° 0 mm 1 mps 757 mmHg 82%
02:00 +12°C° 0 mm 2 mps 757 mmHg 83%
03:00 +12°C° 0 mm 2 mps 757 mmHg 83%
04:00 +12°C° 0 mm 2 mps 756 mmHg 82%
05:00 +12°C° 0 mm 2 mps 756 mmHg 81%
06:00 +12°C° 0 mm 3 mps 756 mmHg 82%
07:00 +12°C° 0.2 mm 3 mps 756 mmHg 81%
08:00 +12°C° 0.2 mm 4 mps 755 mmHg 81%
09:00 +13°C° 0.2 mm 4 mps 755 mmHg 80%
10:00 +13°C° 0 mm 5 mps 755 mmHg 78%
11:00 +14°C° 0 mm 6 mps 754 mmHg 77%
12:00 +15°C° 0 mm 6 mps 753 mmHg 75%
13:00 +16°C° 0 mm 6 mps 752 mmHg 74%
14:00 +17°C° 0 mm 7 mps 752 mmHg 74%
15:00 +18°C° 0 mm 7 mps 751 mmHg 73%
16:00 +20°C° 0 mm 7 mps 751 mmHg 75%
17:00 +20°C° 0 mm 6 mps 751 mmHg 76%
18:00 +20°C° 0 mm 6 mps 750 mmHg 77%
19:00 +19°C° 0 mm 6 mps 750 mmHg 78%
20:00 +19°C° 0 mm 6 mps 750 mmHg 80%
21:00 +17°C° 0 mm 6 mps 751 mmHg 81%
22:00 +17°C° 0.1 mm 6 mps 750 mmHg 82%
23:00 +16°C° 0.1 mm 6 mps 750 mmHg 83%

Tomorrow, 5 August, Wednesday

Time Temperature Precipitation Wind Pressure Humidity
00:00 +16°C° 0.1 mm 5 mps 750 mmHg 84%
01:00 +16°C° 0.4 mm 5 mps 750 mmHg 85%
02:00 +16°C° 0.4 mm 5 mps 750 mmHg 86%
03:00 +16°C° 0.4 mm 5 mps 750 mmHg 86%
04:00 +16°C° 0.2 mm 5 mps 750 mmHg 87%
05:00 +16°C° 0.2 mm 5 mps 750 mmHg 87%
06:00 +16°C° 0.2 mm 5 mps 750 mmHg 88%
07:00 +17°C° 0.1 mm 5 mps 750 mmHg 84%
08:00 +19°C° 0.1 mm 6 mps 750 mmHg 81%
09:00 +20°C° 0.1 mm 6 mps 751 mmHg 77%
10:00 +21°C° 0 mm 6 mps 751 mmHg 74%
11:00 +22°C° 0 mm 6 mps 751 mmHg 70%
12:00 +23°C° 0 mm 7 mps 750 mmHg 66%
13:00 +23°C° 0 mm 6 mps 750 mmHg 66%
14:00 +22°C° 0 mm 6 mps 751 mmHg 67%
15:00 +22°C° 0 mm 5 mps 751 mmHg 68%
16:00 +21°C° 0.7 mm 5 mps 751 mmHg 73%
17:00 +21°C° 0.7 mm 5 mps 751 mmHg 78%
18:00 +20°C° 0.7 mm 4 mps 751 mmHg 83%
19:00 +19°C° 0.5 mm 4 mps 751 mmHg 85%
20:00 +19°C° 0.5 mm 4 mps 752 mmHg 87%
21:00 +19°C° 0.5 mm 4 mps 752 mmHg 89%
22:00 +19°C° 0.1 mm 4 mps 752 mmHg 90%
23:00 +18°C° 0.1 mm 3 mps 752 mmHg 90%

Day after tomorrow, 6 August, Thursday

Time Temperature Precipitation Wind Pressure Humidity
00:00 +18°C° 0.1 mm 3 mps 753 mmHg 91%
01:00 +18°C° 0 mm 3 mps 753 mmHg 92%
02:00 +18°C° 0 mm 3 mps 753 mmHg 92%
03:00 +18°C° 0 mm 2 mps 754 mmHg 93%
04:00 +18°C° 0 mm 2 mps 754 mmHg 93%
05:00 +18°C° 0 mm 2 mps 754 mmHg 92%
06:00 +18°C° 0 mm 2 mps 754 mmHg 92%
07:00 +19°C° 0 mm 2 mps 755 mmHg 86%
08:00 +20°C° 0 mm 2 mps 755 mmHg 80%
09:00 +21°C° 0 mm 3 mps 756 mmHg 74%
10:00 +22°C° 0 mm 3 mps 756 mmHg 71%
11:00 +24°C° 0 mm 3 mps 756 mmHg 69%
12:00 +25°C° 0 mm 4 mps 756 mmHg 66%
13:00 +25°C° 0.1 mm 4 mps 756 mmHg 68%
14:00 +25°C° 0.1 mm 4 mps 756 mmHg 69%
15:00 +25°C° 0.1 mm 4 mps 756 mmHg 70%
16:00 +25°C° 0.2 mm 3 mps 756 mmHg 72%
17:00 +25°C° 0.2 mm 3 mps 756 mmHg 74%
18:00 +24°C° 0.2 mm 3 mps 755 mmHg 76%
19:00 +23°C° 0.2 mm 2 mps 756 mmHg 79%
20:00 +21°C° 0.2 mm 2 mps 756 mmHg 82%
21:00 +20°C° 0.2 mm 2 mps 757 mmHg 85%
22:00 +21°C° 0 mm 1 mps 757 mmHg 86%
23:00 +20°C° 0 mm 1 mps 757 mmHg 86%

7 August, Friday

Time Temperature Precipitation Wind Pressure Humidity
00:00 +20°C° 0 mm 1 mps 757 mmHg 87%
01:00 +19°C° 0 mm 1 mps 757 mmHg 88%
02:00 +19°C° 0 mm 1 mps 757 mmHg 88%
03:00 +18°C° 0 mm 1 mps 757 mmHg 89%
04:00 +18°C° 0 mm 1 mps 757 mmHg 89%
05:00 +18°C° 0 mm 1 mps 757 mmHg 89%
06:00 +18°C° 0 mm 1 mps 758 mmHg 89%
07:00 +19°C° 0 mm 2 mps 758 mmHg 82%
08:00 +20°C° 0 mm 2 mps 758 mmHg 76%
09:00 +23°C° 0 mm 2 mps 758 mmHg 70%
10:00 +24°C° 0 mm 3 mps 758 mmHg 67%
11:00 +25°C° 0 mm 3 mps 758 mmHg 64%
12:00 +26°C° 0 mm 3 mps 758 mmHg 61%
13:00 +26°C° 0.1 mm 3 mps 757 mmHg 61%
14:00 +27°C° 0.1 mm 3 mps 757 mmHg 60%
15:00 +27°C° 0.1 mm 4 mps 757 mmHg 60%
16:00 +27°C° 0 mm 3 mps 757 mmHg 63%
17:00 +26°C° 0 mm 3 mps 757 mmHg 66%
18:00 +25°C° 0 mm 3 mps 757 mmHg 69%
19:00 +24°C° 0 mm 2 mps 757 mmHg 73%
20:00 +21°C° 0 mm 2 mps 758 mmHg 76%
21:00 +20°C° 0 mm 2 mps 758 mmHg 79%
22:00 +19°C° 0 mm 2 mps 758 mmHg 80%
23:00 +19°C° 0 mm 2 mps 759 mmHg 81%

8 August, Saturday

Time Temperature Precipitation Wind Pressure Humidity
00:00 +19°C° 0 mm 1 mps 759 mmHg 81%
01:00 +18°C° 0 mm 2 mps 759 mmHg 83%
02:00 +17°C° 0 mm 2 mps 759 mmHg 85%
03:00 +17°C° 0 mm 2 mps 759 mmHg 87%
04:00 +17°C° 0 mm 3 mps 760 mmHg 87%
05:00 +17°C° 0 mm 3 mps 760 mmHg 86%
06:00 +17°C° 0 mm 3 mps 761 mmHg 86%
07:00 +17°C° 0 mm 3 mps 761 mmHg 80%
08:00 +18°C° 0 mm 4 mps 761 mmHg 74%
09:00 +19°C° 0 mm 4 mps 762 mmHg 68%
10:00 +20°C° 0 mm 4 mps 762 mmHg 63%
11:00 +20°C° 0 mm 4 mps 762 mmHg 59%
12:00 +21°C° 0 mm 4 mps 762 mmHg 55%
13:00 +21°C° 0 mm 4 mps 763 mmHg 56%
14:00 +22°C° 0 mm 4 mps 763 mmHg 56%
15:00 +22°C° 0 mm 4 mps 763 mmHg 57%
16:00 +21°C° 0 mm 4 mps 763 mmHg 60%
17:00 +21°C° 0 mm 4 mps 763 mmHg 64%
18:00 +20°C° 0 mm 3 mps 764 mmHg 68%
19:00 +19°C° 0 mm 3 mps 764 mmHg 69%
20:00 +18°C° 0 mm 3 mps 764 mmHg 71%
21:00 +17°C° 0 mm 3 mps 764 mmHg 72%
22:00 +17°C° 0 mm 3 mps 765 mmHg 70%
23:00 +16°C° 0 mm 3 mps 765 mmHg 67%

9 August, Sunday

Time Temperature Precipitation Wind Pressure Humidity
00:00 +16°C° 0 mm 3 mps 765 mmHg 64%
01:00 +14°C° 0 mm 3 mps 765 mmHg 66%
02:00 +13°C° 0 mm 3 mps 765 mmHg 68%
03:00 +13°C° 0 mm 3 mps 764 mmHg 71%
04:00 +13°C° 0 mm 3 mps 765 mmHg 72%
05:00 +13°C° 0 mm 3 mps 765 mmHg 73%
06:00 +13°C° 0 mm 3 mps 765 mmHg 74%
07:00 +14°C° 0 mm 3 mps 765 mmHg 68%
08:00 +15°C° 0 mm 4 mps 765 mmHg 63%
09:00 +17°C° 0 mm 4 mps 765 mmHg 58%
10:00 +19°C° 0 mm 4 mps 764 mmHg 56%
11:00 +20°C° 0 mm 4 mps 764 mmHg 53%
12:00 +21°C° 0 mm 4 mps 764 mmHg 51%
13:00 +21°C° 0 mm 4 mps 764 mmHg 51%
14:00 +21°C° 0 mm 5 mps 764 mmHg 51%
15:00 +22°C° 0 mm 5 mps 763 mmHg 51%
16:00 +21°C° 0 mm 4 mps 763 mmHg 55%
17:00 +20°C° 0 mm 4 mps 763 mmHg 59%
18:00 +19°C° 0 mm 4 mps 763 mmHg 62%
19:00 +18°C° 0 mm 4 mps 763 mmHg 66%
20:00 +15°C° 0 mm 4 mps 763 mmHg 69%
21:00 +14°C° 0 mm 4 mps 763 mmHg 72%
22:00 +13°C° 0 mm 4 mps 763 mmHg 75%
23:00 +12°C° 0 mm 3 mps 763 mmHg 78%
Show more